[[{"header":{"parameterUnit":"m.s-1","parameterCategory":1,"la1":30.2991,"la2":30.254,"lo1":-89.0895,"lo2":-89.0444,"dy":0.0017,"dx":0.0017,"nx":28,"ny":28,"refTime":"2024-06-18T21:00:00:Z","depth":0,"parameterNumber":2,"parameterNumberName":"U-component_of_WINDS"},"data":[0,0,0,0,0,0,0,0,0,0,0,0,0,0,0,0,0,0,0,0,0,0,0,0,0,0,0,0,0,0,0,0,0,0,0,0,0,0,0,0,0,0,0,0,0,0,0,0,0,0,0,0,0,0,0,0,0,0,-7.4397,-7.4396,0,-7.433,-7.4329,-7.4329,-7.4132,-7.4128,-7.4123,-7.4119,-7.4055,-7.4058,-7.406,0,0,0,0,0,0,0,0,0,0,0,0,0,-7.4361,-7.4362,-7.4397,-7.4396,-7.4396,-7.433,-7.4329,-7.4329,-7.4133,-7.4128,-7.4122,-7.4117,-7.4055,-7.4057,-7.406,0,0,0,0,0,0,0,0,0,0,0,0,0,-7.4344,-7.4363,-7.4397,-7.429,-7.428,-7.4331,-7.4329,-7.4328,-7.4134,-7.4127,-7.4121,-7.4115,-7.4054,-7.4057,-7.406,-7.4211,0,0,-7.4071,-7.4073,0,0,0,0,0,0,0,0,-7.4345,-7.4345,-7.4307,-7.4297,-7.4286,-7.4233,-7.4293,-7.4289,-7.4136,-7.419,-7.4119,-7.4112,-7.412,-7.4118,-7.4119,-7.4208,-7.4206,-7.4071,-7.4073,-7.4075,-7.4076,0,0,0,0,0,0,0,-7.4346,-7.4347,-7.4371,-7.4306,-7.4294,-7.4247,-7.4237,-7.4291,-7.4192,-7.4184,-7.417,-7.4164,-7.4113,-7.4117,-7.4116,-7.4205,-7.4071,-7.4074,-7.4077,-7.4078,-7.4415,-7.4422,0,0,0,0,0,0,-7.4362,-7.4349,-7.4373,-7.4369,-7.43,-7.4253,-7.4242,-7.4257,-7.4191,-7.4174,-7.417,-7.4155,-7.4114,-7.4113,-7.4113,-7.4285,-7.4075,-7.4078,-7.408,-7.4409,-7.4417,-7.4424,0,0,0,0,0,0,-7.4362,-7.4366,-7.4375,-7.4355,-7.4353,-7.426,-7.4278,-7.4259,-7.4261,-7.418,-7.4162,-7.4191,-7.4109,-7.4108,-7.4188,-7.428,-7.408,-7.4083,-7.4401,-7.4411,-7.4421,-7.4631,0,0,0,0,0,0,-7.4362,-7.4367,-7.4422,-7.4358,-7.4355,-7.4451,-7.4284,-7.4262,-7.4267,-7.4248,-7.4195,-7.418,-7.4103,-7.4184,-7.4192,-7.4281,-7.4086,-7.4392,-7.4405,-7.4417,-7.4616,-7.4648,-7.4675,0,0,0,0,0,-7.4361,-7.4485,-7.4426,-7.443,-7.4421,-7.4456,-7.4454,-7.4362,-7.4276,-7.4331,-7.4279,-7.4182,-7.427,-7.4194,-7.4201,-7.4293,-7.4385,-7.4401,-7.4416,-7.4602,-7.4641,-7.4674,0,0,0,0,0,0,-7.4563,-7.4474,-7.4408,-7.4514,-7.4494,-7.4423,-7.4489,-7.4406,-7.4412,-7.4393,-7.428,-7.427,-7.4366,-7.4338,-7.4255,-7.4436,-7.4312,-7.433,-7.4451,-7.4487,-7.4516,-7.452,-7.4089,0,0,0,0,0,-7.462,-7.4655,-7.4576,-7.4677,-7.467,-7.4583,-7.4594,-7.4525,-7.4501,-7.4492,-7.4445,-7.4426,-7.4449,-7.4467,-7.4484,-7.4612,-7.4598,-7.4679,-7.4709,-7.4733,-7.4749,-7.4815,-7.485,-7.4475,-7.4475,-7.4475,0,0,-7.4738,-7.4694,-7.4722,-7.4717,-7.4693,-7.4733,-7.4576,-7.4625,-7.4653,-7.4499,-7.4571,-7.4537,-7.4509,-7.4614,-7.4658,-7.4593,-7.485,-7.4753,-7.4773,-7.4775,-7.4835,-7.4871,-7.4902,-7.4486,-7.4484,-7.4482,0,0,-7.4972,-7.4942,-7.5023,-7.5003,-7.4969,-7.491,-7.493,-7.4872,-7.4843,-7.4914,-7.4799,-7.4833,-7.4875,-7.486,-7.4858,-7.509,-7.5001,-7.5099,-7.5253,-7.5319,-7.5348,-7.5374,-7.5457,-7.5488,-7.5116,-7.5117,-7.5117,0,-7.5122,-7.5175,-7.5075,-7.5131,-7.5133,-7.4995,-7.5077,-7.5063,-7.5038,-7.5043,-7.4971,-7.5022,-7.4993,-7.5093,-7.515,-7.5153,-7.5173,-7.5103,-7.5352,-7.5377,-7.5399,-7.5477,-7.5508,-7.5129,-7.5127,-7.5126,-7.5125,0,-7.5362,-7.5402,-7.5472,-7.5449,-7.5459,-7.5529,-7.544,-7.5463,-7.5395,-7.5345,-7.5419,-7.5381,-7.5387,-7.5407,-7.5341,-7.5498,-7.5459,-7.5372,-7.5244,-7.5449,-7.5519,-7.5548,-7.5146,-7.5142,-7.5138,-7.5135,0,0,-7.5718,-7.5641,-7.5668,-7.5657,-7.5611,-7.5641,-7.5705,-7.5711,-7.5732,-7.5721,-7.5772,-7.5813,-7.5732,-7.5731,-7.5662,-7.5721,-7.5907,-7.5626,-7.5623,-7.5679,-7.6078,-7.6143,-7.6179,-7.5849,-7.5854,-7.5859,-7.608,0,-7.5938,-7.6041,-7.5954,-7.6074,-7.611,-7.5982,-7.6038,-7.6018,-7.5974,-7.5999,-7.5951,-7.5981,-7.5872,-7.587,-7.5923,-7.5874,-7.5986,-7.5857,-7.5897,-7.5899,-7.5905,-7.6215,-7.6283,-7.6494,-7.6107,-7.6112,-7.6115,0,-7.6208,-7.6208,-7.6331,-7.6279,-7.629,-7.6342,-7.6341,-7.6367,-7.6343,-7.6307,-7.6306,-7.6223,-7.6284,-7.6161,-7.6245,-7.6159,-7.6171,-7.615,-7.6156,-7.6155,-7.6018,-7.6221,-7.6559,-7.6591,-7.6158,-7.6155,-7.6152,0,-7.6454,-7.6485,-7.6562,-7.6557,-7.6498,-7.6538,-7.6516,-7.6484,-7.6494,-7.6495,-7.65,-7.6509,-7.6514,-7.6524,-7.6446,-7.6363,-7.654,-7.641,-7.6512,-7.6515,-7.6553,-7.6551,-7.6896,-7.6565,-7.6564,-7.6563,-7.6563,0,-7.6707,-7.6788,-7.6672,-7.672,-7.6807,-7.6709,-7.6798,-7.6763,-7.6737,-7.6777,-7.6668,-7.6708,-7.6604,-7.6634,-7.6574,-7.6653,-7.6656,-7.663,-7.6612,-7.6638,-7.6642,-7.6643,-7.6625,-7.6572,-7.657,-7.6568,-7.6567,0,-7.6995,-7.6921,-7.6997,-7.6936,-7.6923,-7.699,-7.6938,-7.6981,-7.6931,-7.6983,-7.699,-7.6912,-7.6942,-7.6866,-7.6885,-7.6845,-7.6958,-7.6918,-7.6966,-7.6953,-7.7059,-7.705,-7.7415,-7.7458,-7.7101,-7.7105,-7.7108,0,-7.716,-7.7219,-7.7165,-7.7183,-7.7167,-7.7198,-7.7207,-7.7115,-7.7129,-7.7107,-7.7153,-7.7174,-7.7185,-7.7241,-7.7186,-7.7201,-7.716,-7.7287,-7.7161,-7.7186,-7.7161,-7.7157,-7.7163,-7.7313,-7.7317,-7.7321,-7.7323,0,-7.7462,-7.7423,-7.744,-7.7446,-7.746,-7.746,-7.7453,-7.7475,-7.7376,-7.7398,-7.7427,-7.7437,-7.7456,-7.7479,-7.7482,-7.7461,-7.7377,-7.7364,-7.7388,-7.7414,-7.7439,-7.7426,-7.7035,-7.7355,-7.7352,-7.735,-7.7348,-7.7347,-7.7692,-7.7739,-7.7708,-7.7731,-7.7716,-7.7713,-7.775,-7.7705,-7.7727,-7.7735,-7.768,-7.7722,-7.7698,-7.7693,-7.7681,-7.7713,-7.7655,-7.7691,-7.7699,-7.7709,-7.7726,-7.7436,-7.7714,-7.7713,-7.7712,-7.7711,-7.771,0,-7.7987,-7.7961,-7.7984,-7.7977,-7.7997,-7.7916,-7.7904,-7.7926,-7.7963,-7.7948,-7.7962,-7.7997,-7.8019,-7.7968,-7.7983,-7.8019,-7.7981,-7.8026,-7.8021,-7.8018,-7.7777,-7.7754,-7.8056,-7.8056,-7.8056,-7.8056,-7.8056,-7.8056,-7.8142,-7.8216,-7.8175,-7.8242,-7.8216,-7.8255,-7.8255,-7.8252,-7.8239,-7.8283,-7.83,-7.8267,-7.8238,-7.825,-7.8268,-7.8252,-7.8263,-7.8321,-7.8293,-7.8069,-7.8035,-7.8002,-7.798,-7.8325,-7.8325,-7.853,-7.8532,-7.8533]},{"header":{"parameterUnit":"m.s-1","parameterCategory":1,"la1":30.2991,"la2":30.254,"lo1":-89.0895,"lo2":-89.0444,"dy":0.0017,"dx":0.0017,"nx":28,"ny":28,"refTime":"2024-06-18T21:00:00:Z","depth":0,"parameterNumber":3,"parameterNumberName":"V-component_of_WINDS"},"data":[0,0,0,0,0,0,0,0,0,0,0,0,0,0,0,0,0,0,0,0,0,0,0,0,0,0,0,0,0,0,0,0,0,0,0,0,0,0,0,0,0,0,0,0,0,0,0,0,0,0,0,0,0,0,0,0,0,0,0.1942,0.1942,0,0.2,0.2,0.2001,0.206,0.2061,0.2062,0.2063,0.2122,0.2122,0.2123,0,0,0,0,0,0,0,0,0,0,0,0,0,0.1883,0.1883,0.1942,0.1942,0.1943,0.2,0.2,0.2001,0.206,0.2061,0.2062,0.2063,0.2121,0.2122,0.2123,0,0,0,0,0,0,0,0,0,0,0,0,0,0.1921,0.1884,0.1942,0.1979,0.1983,0.1999,0.2,0.2001,0.206,0.2061,0.2063,0.2064,0.2121,0.2122,0.2123,0.2107,0,0,0.2127,0.2128,0,0,0,0,0,0,0,0,0.1919,0.1923,0.1973,0.1977,0.1981,0.2024,0.2001,0.2037,0.206,0.2031,0.2063,0.2064,0.2088,0.2092,0.21,0.2109,0.2112,0.2127,0.2128,0.2129,0.2129,0,0,0,0,0,0,0,0.1916,0.1921,0.1965,0.1974,0.1979,0.1994,0.2001,0.2008,0.2052,0.2034,0.2038,0.2044,0.2091,0.2099,0.2102,0.2113,0.2127,0.2128,0.2129,0.213,0.2112,0.2111,0,0,0,0,0,0,0.1908,0.1918,0.1963,0.1966,0.1952,0.1994,0.2001,0.2009,0.2052,0.206,0.2043,0.2047,0.2096,0.2101,0.2104,0.2088,0.2129,0.213,0.213,0.2113,0.2112,0.211,0,0,0,0,0,0,0.1906,0.1911,0.196,0.1944,0.1951,0.1994,0.2002,0.201,0.2018,0.2059,0.2067,0.2043,0.2098,0.2103,0.2106,0.2091,0.213,0.2131,0.2115,0.2113,0.2111,0.2055,0,0,0,0,0,0,0.1904,0.191,0.1904,0.1943,0.1952,0.1961,0.2001,0.201,0.202,0.2025,0.2062,0.2069,0.2099,0.2104,0.2107,0.2093,0.2132,0.2116,0.2114,0.2112,0.2058,0.2051,0.2046,0,0,0,0,0,0.1902,0.1886,0.1903,0.1908,0.1945,0.196,0.1965,0.1999,0.2019,0.2013,0.204,0.2068,0.2092,0.2104,0.2108,0.2094,0.2117,0.2114,0.2112,0.2061,0.2053,0.2046,0,0,0,0,0,0,0.1843,0.1891,0.1912,0.1907,0.1929,0.197,0.1963,0.1989,0.2006,0.201,0.2052,0.206,0.2058,0.2077,0.2089,0.2081,0.2109,0.2107,0.2069,0.2061,0.2055,0.205,0.2133,0,0,0,0,0,0.183,0.1838,0.1879,0.1872,0.1881,0.192,0.1928,0.1953,0.1977,0.1987,0.2013,0.2036,0.2049,0.2056,0.207,0.2061,0.207,0.2054,0.2048,0.2042,0.204,0.2038,0.2031,0.2102,0.2102,0.2102,0,0,0.1802,0.1829,0.1832,0.1861,0.188,0.1888,0.1928,0.1934,0.194,0.1987,0.1992,0.2013,0.204,0.2038,0.2038,0.2053,0.2023,0.2039,0.2034,0.2035,0.2034,0.2028,0.2022,0.21,0.21,0.21,0,0,0.1755,0.1777,0.1773,0.1792,0.1822,0.1848,0.1847,0.1884,0.1899,0.1905,0.1941,0.1949,0.197,0.1989,0.2001,0.1962,0.1989,0.1965,0.1932,0.1929,0.1923,0.1919,0.1905,0.19,0.1963,0.1963,0.1963,0,0.1717,0.173,0.1768,0.1772,0.1783,0.1828,0.1824,0.1841,0.1873,0.1881,0.1897,0.1925,0.1947,0.195,0.194,0.1948,0.1949,0.1961,0.1921,0.1917,0.1913,0.1901,0.1895,0.196,0.196,0.196,0.1961,0,0.1681,0.169,0.1683,0.1714,0.1725,0.1725,0.1763,0.177,0.1795,0.1819,0.1825,0.1852,0.1873,0.1876,0.1899,0.1882,0.189,0.1913,0.1942,0.1903,0.1892,0.1887,0.1955,0.1957,0.1957,0.1958,0,0,0.1599,0.1651,0.1648,0.1663,0.1699,0.1706,0.1709,0.1729,0.1735,0.1756,0.1759,0.1776,0.1798,0.1812,0.1838,0.1836,0.1804,0.1859,0.1861,0.1848,0.1787,0.1769,0.1763,0.1822,0.1821,0.1821,0.1785,0,0.1558,0.1565,0.16,0.1597,0.1606,0.1648,0.1651,0.1673,0.1697,0.1707,0.1733,0.1745,0.1773,0.1781,0.1781,0.1808,0.1792,0.1811,0.1826,0.1826,0.1817,0.1757,0.1739,0.1703,0.1781,0.178,0.1779,0,0.1512,0.1531,0.1528,0.1566,0.157,0.1572,0.1594,0.1604,0.163,0.1648,0.1663,0.1693,0.1698,0.1726,0.1734,0.1746,0.1754,0.1768,0.1768,0.1771,0.18,0.1758,0.1693,0.1688,0.1773,0.1774,0.1774,0,0.1452,0.1477,0.1479,0.149,0.1533,0.1533,0.1551,0.158,0.159,0.1609,0.1617,0.1636,0.1647,0.1662,0.1696,0.1712,0.17,0.173,0.1715,0.1714,0.171,0.171,0.1645,0.1715,0.1715,0.1715,0.1716,0,0.1403,0.14,0.1453,0.1454,0.1452,0.1493,0.149,0.1512,0.1537,0.1543,0.1581,0.1587,0.1632,0.1642,0.1669,0.1672,0.1677,0.1691,0.1698,0.1688,0.1686,0.1693,0.1697,0.1714,0.1714,0.1715,0.1715,0,0.1336,0.1371,0.1376,0.1417,0.1427,0.1424,0.1459,0.1462,0.1488,0.1496,0.15,0.154,0.1555,0.1591,0.1615,0.1633,0.1629,0.1642,0.162,0.1624,0.1607,0.1608,0.1545,0.1539,0.1612,0.1611,0.1611,0,0.1302,0.1301,0.1342,0.1349,0.1366,0.1377,0.1388,0.1428,0.1438,0.1469,0.1468,0.1486,0.1502,0.1524,0.1555,0.1574,0.1588,0.1564,0.1591,0.158,0.1588,0.1587,0.1588,0.1558,0.1557,0.1556,0.1556,0,0.1239,0.1257,0.1272,0.1292,0.1305,0.1323,0.1343,0.1347,0.1392,0.1401,0.1417,0.1429,0.1454,0.1471,0.1495,0.1514,0.1542,0.1547,0.1545,0.1534,0.1521,0.1528,0.1604,0.1548,0.1549,0.155,0.155,0.155,0.1188,0.119,0.1219,0.1234,0.1254,0.1272,0.1277,0.1304,0.1318,0.1341,0.1364,0.1377,0.1405,0.144,0.1457,0.1468,0.1482,0.1478,0.1478,0.1476,0.1471,0.1519,0.1472,0.1472,0.1473,0.1473,0.1473,0,0.1128,0.1149,0.1162,0.119,0.1202,0.1228,0.1252,0.1261,0.1272,0.1295,0.1311,0.1329,0.1346,0.1379,0.1399,0.1402,0.1416,0.1406,0.1406,0.141,0.1457,0.1457,0.1395,0.1395,0.1395,0.1395,0.1395,0.1395,0.1098,0.1102,0.1123,0.1137,0.1158,0.1172,0.1183,0.12,0.122,0.1238,0.1253,0.1274,0.1302,0.1325,0.1342,0.1351,0.1357,0.1343,0.1356,0.1399,0.1407,0.1414,0.1414,0.1344,0.1344,0.1309,0.1308,0.1308]}]]